Time,TemperatureF,DewpointF,PressureIn,WindDirection,WindDirectionDegrees,WindSpeedMPH,WindSpeedGustMPH,Humidity,HourlyPrecipIn,Conditions,Clouds,dailyrainin,SoftwareType,DateUTC
2013-04-18 00:12:00,34.0,-99.9,-100.00,NE,52,14.0,16.0,-999,-99.99,,,-99.99,,2013-04-18 05:12:00,
2013-04-18 00:22:00,34.0,-99.9,-100.00,NE,52,14.0,16.0,-999,-99.99,,,-99.99,,2013-04-18 05:22:00,
2013-04-18 00:33:00,34.0,-99.9,-100.00,NE,52,14.0,16.0,-999,-99.99,,,-99.99,,2013-04-18 05:33:00,
2013-04-18 00:42:00,34.0,-99.9,-100.00,NE,52,14.0,16.0,-999,-99.99,,,-99.99,,2013-04-18 05:42:00,
2013-04-18 00:52:00,34.0,-99.9,-100.00,NE,52,14.0,16.0,-999,-99.99,,,-99.99,,2013-04-18 05:52:00,
2013-04-18 01:02:00,34.0,-99.9,-100.00,NE,52,14.0,16.0,-999,-99.99,,,-99.99,,2013-04-18 06:02:00,
2013-04-18 01:12:00,33.0,-99.9,-100.00,NE,51,15.0,18.0,-999,-99.99,,,-99.99,,2013-04-18 06:12:00,
2013-04-18 01:22:00,33.0,-99.9,-100.00,NE,51,15.0,18.0,-999,-99.99,,,-99.99,,2013-04-18 06:22:00,
2013-04-18 01:32:00,33.0,-99.9,-100.00,NE,51,15.0,18.0,-999,-99.99,,,-99.99,,2013-04-18 06:32:00,
2013-04-18 01:42:00,33.0,-99.9,-100.00,NE,51,15.0,18.0,-999,-99.99,,,-99.99,,2013-04-18 06:42:00,
2013-04-18 01:52:00,33.0,-99.9,-100.00,NE,51,15.0,18.0,-999,-99.99,,,-99.99,,2013-04-18 06:52:00,
2013-04-18 02:02:00,33.0,-99.9,-100.00,NE,51,15.0,18.0,-999,-99.99,,,-99.99,,2013-04-18 07:02:00,
2013-04-18 02:12:00,34.0,-99.9,-100.00,NE,55,9.0,15.0,-999,-99.99,,,-99.99,,2013-04-18 07:12:00,
2013-04-18 02:22:00,34.0,-99.9,-100.00,NE,55,9.0,15.0,-999,-99.99,,,-99.99,,2013-04-18 07:22:00,
2013-04-18 02:32:00,34.0,-99.9,-100.00,NE,55,9.0,21.0,-999,-99.99,,,-99.99,,2013-04-18 07:32:00,
2013-04-18 02:42:00,34.0,-99.9,-100.00,NE,55,9.0,21.0,-999,-99.99,,,-99.99,,2013-04-18 07:42:00,
2013-04-18 02:53:00,34.0,-99.9,-100.00,NE,55,9.0,21.0,-999,-99.99,,,-99.99,,2013-04-18 07:53:00,
2013-04-18 03:02:00,34.0,-99.9,-100.00,NE,55,9.0,21.0,-999,-99.99,,,-99.99,,2013-04-18 08:02:00,
2013-04-18 03:12:00,34.0,-99.9,-100.00,ENE,58,14.0,20.0,-999,-99.99,,,-99.99,,2013-04-18 08:12:00,
2013-04-18 03:22:00,34.0,-99.9,-100.00,ENE,58,14.0,20.0,-999,-99.99,,,-99.99,,2013-04-18 08:22:00,
2013-04-18 03:32:00,34.0,-99.9,-100.00,ENE,58,14.0,20.0,-999,-99.99,,,-99.99,,2013-04-18 08:32:00,
2013-04-18 03:40:00,34.0,-99.9,-100.00,NE,46,18.0,20.0,-999,-99.99,,,-99.99,,2013-04-18 08:40:00,
2013-04-18 03:42:00,34.0,-99.9,-100.00,ENE,58,14.0,20.0,-999,-99.99,,,-99.99,,2013-04-18 08:42:00,
2013-04-18 03:52:00,34.0,-99.9,-100.00,ENE,58,14.0,20.0,-999,-99.99,,,-99.99,,2013-04-18 08:52:00,
2013-04-18 04:02:00,34.0,-99.9,-100.00,ENE,58,14.0,20.0,-999,-99.99,,,-99.99,,2013-04-18 09:02:00,
2013-04-18 04:12:00,34.0,-99.9,-100.00,NE,46,18.0,20.0,-999,-99.99,,,-99.99,,2013-04-18 09:12:00,
2013-04-18 04:23:00,34.0,-99.9,-100.00,NE,46,18.0,20.0,-999,-99.99,,,-99.99,,2013-04-18 09:23:00,
2013-04-18 04:33:00,34.0,-99.9,-100.00,NE,46,18.0,20.0,-999,-99.99,,,-99.99,,2013-04-18 09:33:00,
2013-04-18 04:53:00,34.0,-99.9,-100.00,NE,46,18.0,21.0,-999,-99.99,,,-99.99,,2013-04-18 09:53:00,
2013-04-18 05:03:00,34.0,-99.9,-100.00,NE,46,18.0,21.0,-999,-99.99,,,-99.99,,2013-04-18 10:03:00,
2013-04-18 05:12:00,34.0,-99.9,-100.00,NE,44,15.0,20.0,-999,-99.99,,,-99.99,,2013-04-18 10:12:00,
2013-04-18 05:23:00,34.0,-99.9,-100.00,NE,45,18.0,22.0,-999,-99.99,,,-99.99,,2013-04-18 10:23:00,
2013-04-18 05:33:00,34.0,-99.9,-100.00,NE,45,18.0,22.0,-999,-99.99,,,-99.99,,2013-04-18 10:33:00,
2013-04-18 05:40:00,34.0,-99.9,-100.00,NE,46,19.0,21.0,-999,-99.99,,,-99.99,,2013-04-18 10:40:00,
2013-04-18 05:42:00,34.0,-99.9,-100.00,NE,45,18.0,22.0,-999,-99.99,,,-99.99,,2013-04-18 10:42:00,
2013-04-18 05:53:00,34.0,-99.9,-100.00,NE,45,18.0,22.0,-999,-99.99,,,-99.99,,2013-04-18 10:53:00,
2013-04-18 06:03:00,34.0,-99.9,-100.00,NE,45,18.0,22.0,-999,-99.99,,,-99.99,,2013-04-18 11:03:00,
2013-04-18 06:12:00,34.0,-99.9,-100.00,NE,46,19.0,21.0,-999,-99.99,,,-99.99,,2013-04-18 11:12:00,
2013-04-18 06:22:00,34.0,-99.9,-100.00,NE,46,19.0,21.0,-999,-99.99,,,-99.99,,2013-04-18 11:22:00,
2013-04-18 06:33:00,34.0,-99.9,-100.00,NE,46,19.0,21.0,-999,-99.99,,,-99.99,,2013-04-18 11:33:00,
2013-04-18 06:40:00,34.0,-99.9,-100.00,NE,44,17.0,20.0,-999,-99.99,,,-99.99,,2013-04-18 11:40:00,
2013-04-18 07:12:00,34.0,-99.9,-100.00,NE,44,17.0,20.0,-999,-99.99,,,-99.99,,2013-04-18 12:12:00,
2013-04-18 07:23:00,34.0,-99.9,-100.00,NE,44,17.0,20.0,-999,-99.99,,,-99.99,,2013-04-18 12:23:00,
2013-04-18 07:32:00,34.0,-99.9,-100.00,NE,44,17.0,20.0,-999,-99.99,,,-99.99,,2013-04-18 12:32:00,
2013-04-18 07:40:00,34.0,-99.9,-100.00,NNE,26,17.0,20.0,-999,-99.99,,,-99.99,,2013-04-18 12:40:00,
2013-04-18 08:13:00,34.0,-99.9,-100.00,NNE,26,17.0,20.0,-999,-99.99,,,-99.99,,2013-04-18 13:13:00,
2013-04-18 08:22:00,34.0,-99.9,-100.00,NNE,26,17.0,20.0,-999,-99.99,,,-99.99,,2013-04-18 13:22:00,
2013-04-18 08:33:00,34.0,-99.9,-100.00,NNE,26,17.0,20.0,-999,-99.99,,,-99.99,,2013-04-18 13:33:00,
2013-04-18 09:13:00,34.0,-99.9,-100.00,NNE,33,17.0,22.0,-999,-99.99,,,-99.99,,2013-04-18 14:13:00,
2013-04-18 09:22:00,34.0,-99.9,-100.00,NNE,33,17.0,22.0,-999,-99.99,,,-99.99,,2013-04-18 14:22:00,
2013-04-18 09:33:00,34.0,-99.9,-100.00,NNE,32,18.0,23.0,-999,-99.99,,,-99.99,,2013-04-18 14:33:00,
2013-04-18 09:43:00,34.0,-99.9,-100.00,NNE,32,18.0,23.0,-999,-99.99,,,-99.99,,2013-04-18 14:43:00,
2013-04-18 09:53:00,34.0,-99.9,-100.00,NNE,32,18.0,23.0,-999,-99.99,,,-99.99,,2013-04-18 14:53:00,
2013-04-18 10:03:00,34.0,-99.9,-100.00,NNE,32,18.0,23.0,-999,-99.99,,,-99.99,,2013-04-18 15:03:00,
2013-04-18 10:12:00,34.0,-99.9,-100.00,NE,38,22.0,26.0,-999,-99.99,,,-99.99,,2013-04-18 15:12:00,
2013-04-18 10:23:00,34.0,-99.9,-100.00,NE,37,26.0,0.0,-999,-99.99,,,-99.99,,2013-04-18 15:23:00,
2013-04-18 10:33:00,34.0,-99.9,-100.00,NE,37,26.0,0.0,-999,-99.99,,,-99.99,,2013-04-18 15:33:00,
2013-04-18 10:43:00,34.0,-99.9,-100.00,NE,37,26.0,0.0,-999,-99.99,,,-99.99,,2013-04-18 15:43:00,
2013-04-18 10:53:00,34.0,-99.9,-100.00,NE,37,26.0,0.0,-999,-99.99,,,-99.99,,2013-04-18 15:53:00,
2013-04-18 11:03:00,34.0,-99.9,-100.00,NE,37,26.0,0.0,-999,-99.99,,,-99.99,,2013-04-18 16:03:00,
2013-04-18 11:13:00,34.0,-99.9,-100.00,NNE,31,21.0,28.0,-999,-99.99,,,-99.99,,2013-04-18 16:13:00,
2013-04-18 11:23:00,34.0,-99.9,-100.00,NNE,31,21.0,28.0,-999,-99.99,,,-99.99,,2013-04-18 16:23:00,
2013-04-18 11:33:00,34.0,-99.9,-100.00,NNE,31,21.0,28.0,-999,-99.99,,,-99.99,,2013-04-18 16:33:00,
2013-04-18 11:43:00,34.0,-99.9,-100.00,NE,37,25.0,0.0,-999,-99.99,,,-99.99,,2013-04-18 16:43:00,
2013-04-18 11:53:00,34.0,-99.9,-100.00,NE,37,25.0,0.0,-999,-99.99,,,-99.99,,2013-04-18 16:53:00,
2013-04-18 12:03:00,34.0,-99.9,-100.00,NE,37,25.0,0.0,-999,-99.99,,,-99.99,,2013-04-18 17:03:00,
2013-04-18 12:13:00,34.0,-99.9,-100.00,NE,39,25.0,31.0,-999,-99.99,,,-99.99,,2013-04-18 17:13:00,
2013-04-18 12:22:00,34.0,-99.9,-100.00,NE,39,25.0,31.0,-999,-99.99,,,-99.99,,2013-04-18 17:22:00,
2013-04-18 12:33:00,34.0,-99.9,-100.00,NE,39,25.0,31.0,-999,-99.99,,,-99.99,,2013-04-18 17:33:00,
2013-04-18 12:43:00,34.0,-99.9,-100.00,NE,39,25.0,30.0,-999,-99.99,,,-99.99,,2013-04-18 17:43:00,
2013-04-18 12:52:00,34.0,-99.9,-100.00,NE,39,25.0,30.0,-999,-99.99,,,-99.99,,2013-04-18 17:52:00,
2013-04-18 13:03:00,34.0,-99.9,-100.00,NE,39,25.0,30.0,-999,-99.99,,,-99.99,,2013-04-18 18:03:00,
2013-04-18 13:13:00,33.0,-99.9,-100.00,NE,44,27.0,31.0,-999,-99.99,,,-99.99,,2013-04-18 18:13:00,
2013-04-18 13:23:00,34.0,-99.9,-100.00,NE,39,25.0,30.0,-999,-99.99,,,-99.99,,2013-04-18 18:23:00,
2013-04-18 13:33:00,34.0,-99.9,-100.00,NE,39,25.0,30.0,-999,-99.99,,,-99.99,,2013-04-18 18:33:00,
2013-04-18 13:43:00,34.0,-99.9,-100.00,NE,39,25.0,30.0,-999,-99.99,,,-99.99,,2013-04-18 18:43:00,
2013-04-18 13:53:00,33.0,-99.9,-100.00,NE,43,26.0,30.0,-999,-99.99,,,-99.99,,2013-04-18 18:53:00,
2013-04-18 14:03:00,33.0,-99.9,-100.00,NE,43,26.0,30.0,-999,-99.99,,,-99.99,,2013-04-18 19:03:00,
2013-04-18 14:13:00,34.0,-99.9,-100.00,NE,51,26.0,32.0,-999,-99.99,,,-99.99,,2013-04-18 19:13:00,
2013-04-18 14:22:00,33.0,-99.9,-100.00,NE,43,26.0,30.0,-999,-99.99,,,-99.99,,2013-04-18 19:22:00,
2013-04-18 14:33:00,33.0,-99.9,-100.00,NE,43,26.0,30.0,-999,-99.99,,,-99.99,,2013-04-18 19:33:00,
2013-04-18 14:43:00,33.0,-99.9,-100.00,NE,42,25.0,0.0,-999,-99.99,,,-99.99,,2013-04-18 19:43:00,
2013-04-18 14:53:00,33.0,-99.9,-100.00,NE,42,25.0,0.0,-999,-99.99,,,-99.99,,2013-04-18 19:53:00,
2013-04-18 15:03:00,33.0,-99.9,-100.00,NE,42,25.0,0.0,-999,-99.99,,,-99.99,,2013-04-18 20:03:00,
2013-04-18 15:12:00,33.0,-99.9,-100.00,NE,46,24.0,28.0,-999,-99.99,,,-99.99,,2013-04-18 20:12:00,
2013-04-18 15:22:00,33.0,-99.9,-100.00,NE,46,24.0,28.0,-999,-99.99,,,-99.99,,2013-04-18 20:22:00,
2013-04-18 15:33:00,33.0,-99.9,-100.00,NE,40,27.0,30.0,-999,-99.99,,,-99.99,,2013-04-18 20:33:00,
2013-04-18 15:43:00,33.0,-99.9,-100.00,NE,40,27.0,30.0,-999,-99.99,,,-99.99,,2013-04-18 20:43:00,
2013-04-18 15:52:00,33.0,-99.9,-100.00,NE,50,26.0,0.0,-999,-99.99,,,-99.99,,2013-04-18 20:52:00,
2013-04-18 16:03:00,33.0,-99.9,-100.00,NE,50,26.0,0.0,-999,-99.99,,,-99.99,,2013-04-18 21:03:00,
2013-04-18 16:12:00,33.0,-99.9,-100.00,NE,47,22.0,27.0,-999,-99.99,,,-99.99,,2013-04-18 21:12:00,
2013-04-18 16:22:00,33.0,-99.9,-100.00,NE,43,21.0,30.0,-999,-99.99,,,-99.99,,2013-04-18 21:22:00,
2013-04-18 16:33:00,33.0,-99.9,-100.00,NE,43,21.0,30.0,-999,-99.99,,,-99.99,,2013-04-18 21:33:00,
2013-04-18 16:43:00,33.0,-99.9,-100.00,NE,43,21.0,30.0,-999,-99.99,,,-99.99,,2013-04-18 21:43:00,
2013-04-18 16:53:00,33.0,-99.9,-100.00,NE,38,25.0,0.0,-999,-99.99,,,-99.99,,2013-04-18 21:53:00,
2013-04-18 17:03:00,33.0,-99.9,-100.00,NE,38,25.0,0.0,-999,-99.99,,,-99.99,,2013-04-18 22:03:00,
2013-04-18 17:13:00,33.0,-99.9,-100.00,NE,42,22.0,29.0,-999,-99.99,,,-99.99,,2013-04-18 22:13:00,
2013-04-18 17:23:00,33.0,-99.9,-100.00,NE,42,25.0,29.0,-999,-99.99,,,-99.99,,2013-04-18 22:23:00,
2013-04-18 17:33:00,33.0,-99.9,-100.00,NE,42,25.0,29.0,-999,-99.99,,,-99.99,,2013-04-18 22:33:00,
2013-04-18 17:42:00,33.0,-99.9,-100.00,NE,42,25.0,29.0,-999,-99.99,,,-99.99,,2013-04-18 22:42:00,
2013-04-18 17:53:00,32.0,-99.9,-100.00,NE,38,27.0,0.0,-999,-99.99,,,-99.99,,2013-04-18 22:53:00,
2013-04-18 18:04:00,32.0,-99.9,-100.00,NE,38,27.0,0.0,-999,-99.99,,,-99.99,,2013-04-18 23:04:00,
2013-04-18 18:12:00,32.0,-99.9,-100.00,NE,38,26.0,34.0,-999,-99.99,,,-99.99,,2013-04-18 23:12:00,
2013-04-18 18:22:00,33.0,-99.9,-100.00,NE,34,25.0,29.0,-999,-99.99,,,-99.99,,2013-04-18 23:22:00,
2013-04-18 18:32:00,33.0,-99.9,-100.00,NE,34,25.0,29.0,-999,-99.99,,,-99.99,,2013-04-18 23:32:00,
2013-04-18 18:42:00,32.0,-99.9,-100.00,NE,45,29.0,0.0,-999,-99.99,,,-99.99,,2013-04-18 23:42:00,
2013-04-18 18:52:00,32.0,-99.9,-100.00,NE,45,29.0,0.0,-999,-99.99,,,-99.99,,2013-04-18 23:52:00,
2013-04-18 19:02:00,32.0,-99.9,-100.00,NE,45,29.0,0.0,-999,-99.99,,,-99.99,,2013-04-19 00:02:00,
2013-04-18 19:12:00,32.0,-99.9,-100.00,NE,41,29.0,38.0,-999,-99.99,,,-99.99,,2013-04-19 00:12:00,
2013-04-18 19:22:00,32.0,-99.9,-100.00,NE,38,30.0,33.0,-999,-99.99,,,-99.99,,2013-04-19 00:22:00,
2013-04-18 19:32:00,32.0,-99.9,-100.00,NE,38,30.0,33.0,-999,-99.99,,,-99.99,,2013-04-19 00:32:00,
2013-04-18 19:42:00,32.0,-99.9,-100.00,NE,38,30.0,33.0,-999,-99.99,,,-99.99,,2013-04-19 00:42:00,
2013-04-18 19:52:00,32.0,-99.9,-100.00,NE,38,30.0,33.0,-999,-99.99,,,-99.99,,2013-04-19 00:52:00,
2013-04-18 20:01:00,32.0,-99.9,-100.00,NE,34,27.0,0.0,-999,-99.99,,,-99.99,,2013-04-19 01:01:00,
2013-04-18 20:11:00,32.0,-99.9,-100.00,NE,34,31.0,37.0,-999,-99.99,,,-99.99,,2013-04-19 01:11:00,
2013-04-18 20:22:00,32.0,-99.9,-100.00,NNE,32,28.0,34.0,-999,-99.99,,,-99.99,,2013-04-19 01:22:00,
2013-04-18 20:32:00,32.0,-99.9,-100.00,NNE,32,28.0,34.0,-999,-99.99,,,-99.99,,2013-04-19 01:32:00,
2013-04-18 20:42:00,32.0,-99.9,-100.00,NNE,32,28.0,34.0,-999,-99.99,,,-99.99,,2013-04-19 01:42:00,
2013-04-18 20:52:00,32.0,-99.9,-100.00,NNE,32,28.0,34.0,-999,-99.99,,,-99.99,,2013-04-19 01:52:00,
2013-04-18 21:02:00,32.0,-99.9,-100.00,NE,42,24.0,0.0,-999,-99.99,,,-99.99,,2013-04-19 02:02:00,
2013-04-18 21:11:00,32.0,-99.9,-100.00,NE,42,32.0,38.0,-999,-99.99,,,-99.99,,2013-04-19 02:11:00,
2013-04-18 21:22:00,32.0,-99.9,-100.00,NE,42,32.0,38.0,-999,-99.99,,,-99.99,,2013-04-19 02:22:00,
2013-04-18 21:32:00,32.0,-99.9,-100.00,NE,40,29.0,31.0,-999,-99.99,,,-99.99,,2013-04-19 02:32:00,
2013-04-18 21:42:00,32.0,-99.9,-100.00,NE,40,29.0,31.0,-999,-99.99,,,-99.99,,2013-04-19 02:42:00,
2013-04-18 21:52:00,32.0,-99.9,-100.00,NE,40,35.0,0.0,-999,-99.99,,,-99.99,,2013-04-19 02:52:00,
2013-04-18 22:02:00,32.0,-99.9,-100.00,NE,40,35.0,0.0,-999,-99.99,,,-99.99,,2013-04-19 03:02:00,
2013-04-18 22:12:00,32.0,-99.9,-100.00,NE,42,35.0,40.0,-999,-99.99,,,-99.99,,2013-04-19 03:12:00,
2013-04-18 22:22:00,32.0,-99.9,-100.00,NE,42,35.0,40.0,-999,-99.99,,,-99.99,,2013-04-19 03:22:00,
2013-04-18 22:33:00,32.0,-99.9,-100.00,NE,40,35.0,0.0,-999,-99.99,,,-99.99,,2013-04-19 03:33:00,
2013-04-18 22:43:00,32.0,-99.9,-100.00,NE,40,35.0,0.0,-999,-99.99,,,-99.99,,2013-04-19 03:43:00,
2013-04-18 22:54:00,32.0,-99.9,-100.00,NE,39,34.0,42.0,-999,-99.99,,,-99.99,,2013-04-19 03:54:00,
2013-04-18 23:03:00,32.0,-99.9,-100.00,NE,39,34.0,42.0,-999,-99.99,,,-99.99,,2013-04-19 04:03:00,
2013-04-18 23:13:00,32.0,-99.9,-100.00,NE,39,32.0,42.0,-999,-99.99,,,-99.99,,2013-04-19 04:13:00,
2013-04-18 23:24:00,32.0,-99.9,-100.00,NE,39,32.0,42.0,-999,-99.99,,,-99.99,,2013-04-19 04:24:00,
2013-04-18 23:33:00,32.0,-99.9,-100.00,NE,39,34.0,42.0,-999,-99.99,,,-99.99,,2013-04-19 04:33:00,
2013-04-18 23:43:00,32.0,-99.9,-100.00,NE,39,34.0,42.0,-999,-99.99,,,-99.99,,2013-04-19 04:43:00,
2013-04-18 23:52:00,32.0,-99.9,-100.00,NE,44,36.0,0.0,-999,-99.99,,,-99.99,,2013-04-19 04:52:00,